Tracking 32579 objects as of 15-Dec-2025
HD Live streaming from Space Station
objects crossing your sky now

STARLINK-3603

Track STARLINK-3603 now!
10-day predictions
STARLINK-3603 is classified as:


NORAD ID: 51816
Int'l Code: 2022-017BA
Perigee: 545.1 km
Apogee: 547.3 km
Inclination: 53.2 °
Period: 95.4 minutes
Semi major axis: 6917 km
RCS: Unknown
Launch date: February 25, 2022
Source: United States (US)
Launch site: AIR FORCE WESTERN TEST RANGE (AFWTR)
Your satellite tracking list
Your tracking list is empty




NASA's NSSDC Master Catalog

Two Line Element Set (TLE):
1 51816U 22017BA  25349.32466817  .00028891  00000-0  18147-2 0  9994
2 51816  53.2191 348.0893 0001612  62.8824 297.2332 15.09065219211391
Source of the keplerian elements: AFSPC